Location: Powder Track
(41.8531°N, 72.3584°W)
Time: 18:55:55
(UTC+00:00)

S-56A Canister/Altair - All Passes

Search period start: 27 July 2021 00:00
Search period end: 06 August 2021 00:00
Orbit: 632 x 2501 km, 38.9° (Epoch: 26 July)

Date Brightness Start Highest point End Pass type
(mag) Time Alt. Az. Time Alt. Az. Time Alt. Az.
27 Jul - 00:22:28 10° W 00:37:28 77° S 00:48:47 10° ESE visible
27 Jul - 02:29:58 10° W 02:42:49 50° SSW 02:51:52 10° SE visible
27 Jul - 04:39:32 10° W 04:45:44 17° SW 04:50:52 10° SSW visible
27 Jul - 17:40:36 10° SSE 17:47:21 15° SE 17:54:33 10° E daylight
27 Jul - 19:38:28 10° SSW 19:51:18 44° SE 20:04:49 10° E daylight
27 Jul - 21:42:20 10° WSW 21:57:14 72° SSE 22:10:57 10° E daylight
27 Jul - 23:48:46 10° W 00:03:59 78° S 00:15:58 10° ESE daylight
28 Jul - 01:56:08 10° W 02:09:43 55° SSW 02:19:29 10° SE visible
28 Jul - 04:05:02 10° W 04:13:05 21° SW 04:19:27 10° S visible
28 Jul - 17:10:00 10° SE 17:14:23 12° ESE 17:19:00 10° ESE daylight
28 Jul - 19:05:48 10° SSW 19:17:56 40° SE 19:31:14 10° E daylight
28 Jul - 21:09:03 10° WSW 21:23:37 69° SSE 21:37:45 10° E daylight
28 Jul - 23:15:08 10° W 23:30:27 79° S 23:43:05 10° E daylight
29 Jul - 01:22:20 10° W 01:36:31 60° SSW 01:46:58 10° SE visible
29 Jul - 03:30:46 10° W 03:40:20 25° SW 03:47:44 10° S visible
29 Jul - 18:33:16 10° SSW 18:44:40 36° SE 18:57:32 10° E daylight
29 Jul - 20:35:54 10° WSW 20:50:02 66° SSE 21:04:29 10° E daylight
29 Jul - 22:41:35 10° W 22:56:51 80° S 23:10:05 10° E daylight
30 Jul - 00:48:35 10° W 01:03:13 64° SSW 01:14:22 10° SE visible
30 Jul - 02:56:38 10° W 03:07:30 30° SW 03:15:48 10° S visible
30 Jul - 18:00:54 10° SSW 18:11:28 32° SE 18:23:42 10° E daylight
30 Jul - 20:02:52 10° SW 20:16:28 63° SSE 20:31:06 10° E daylight
30 Jul - 22:08:08 10° W 22:23:12 80° S 22:37:00 10° E daylight
31 Jul - 00:14:53 10° W 00:29:50 68° SSW 00:41:40 10° ESE visible
31 Jul - 02:22:37 10° W 02:34:34 35° SW 02:43:42 10° SSE visible
31 Jul - 17:28:43 10° S 17:38:22 28° SE 17:49:43 10° E daylight
31 Jul - 19:29:57 10° SW 19:42:58 59° SSE 19:57:37 10° E daylight
31 Jul - 21:34:45 10° WSW 21:49:32 79° S 22:03:50 10° E daylight
31 Jul - 23:41:14 10° W 23:56:22 71° SSW 00:08:51 10° ESE daylight
01 Aug - 01:48:41 10° W 02:01:31 40° SW 02:11:27 10° SSE visible
01 Aug - 04:02:19 10° WSW 04:04:13 10° WSW 04:06:03 10° SW visible
01 Aug - 16:56:43 10° S 17:05:21 24° SE 17:15:32 10° E daylight
01 Aug - 18:57:09 10° SW 19:09:32 55° SSE 19:24:04 10° E daylight
01 Aug - 21:01:29 10° WSW 21:15:52 78° S 21:30:33 10° E daylight
01 Aug - 23:07:40 10° W 23:22:49 74° SSW 23:35:56 10° ESE daylight
02 Aug - 01:14:50 10° W 01:28:22 44° SW 01:39:04 10° SSE visible
02 Aug - 03:25:45 10° W 03:31:30 14° SW 03:36:35 10° SSW visible
02 Aug - 16:25:00 10° SSE 16:32:25 20° SE 16:41:09 10° E daylight
02 Aug - 18:24:28 10° SW 18:36:10 51° SSE 18:50:25 10° E daylight
02 Aug - 20:28:19 10° WSW 20:42:13 77° S 20:57:11 10° E daylight
02 Aug - 22:34:11 10° W 22:49:14 76° SSW 23:02:56 10° ESE daylight
03 Aug - 00:41:04 10° W 00:55:08 49° SSW 01:06:33 10° SE visible
03 Aug - 02:50:45 10° W 02:58:41 18° SW 03:05:31 10° SSW visible
03 Aug - 15:53:39 10° SSE 15:59:35 16° SE 16:06:24 10° E daylight
03 Aug - 17:51:55 10° SSW 18:02:53 47° SE 18:16:41 10° E daylight
03 Aug - 19:55:16 10° WSW 20:08:36 75° SSE 20:23:44 10° E daylight
03 Aug - 22:00:47 10° W 22:15:35 77° S 22:29:48 10° ESE daylight
04 Aug - 00:07:23 10° W 00:21:48 53° SSW 00:33:57 10° SE visible
04 Aug - 02:16:13 10° W 02:25:49 22° SW 02:33:56 10° S visible
04 Aug - 15:23:07 10° SE 15:26:49 12° ESE 15:30:55 10° ESE daylight
04 Aug - 17:19:29 10° SSW 17:29:42 42° SE 17:42:52 10° E daylight
04 Aug - 19:22:19 10° WSW 19:35:02 72° SSE 19:50:12 10° E daylight
04 Aug - 21:27:29 10° W 21:41:55 79° S 21:56:34 10° ESE daylight
04 Aug - 23:33:48 10° W 23:48:23 57° SSW 00:01:12 10° SE daylight
05 Aug - 01:41:57 10° W 01:52:49 26° SW 02:02:04 10° S visible
05 Aug - 16:47:11 10° SSW 16:56:38 37° SE 17:08:58 10° E daylight
05 Aug - 18:49:28 10° WSW 19:01:32 69° SSE 19:16:35 10° E daylight
05 Aug - 20:54:16 10° W 21:08:16 79° S 21:23:14 10° E daylight
05 Aug - 23:00:17 10° W 23:14:55 61° SSW 23:28:19 10° SE daylight
